Location: Newark
(41.1192°N, 81.5292°W)
Time: 20:33:06
(UTC+00:00)

N. Korean satellite - Pass Details

Date: 14 November 2019
Orbit: 455 x 507 km, 97.2° (Epoch: 14 December)

Event Time Altitude Azimuth Distance (km) Brightness Sun altitude
Rises 23:34:42 0° 210° (SSW) 2,533 10.8 -16.4°
Reaches altitude 10° 23:37:39 10° 238° (WSW) 1,673 10.3 -16.9°
Maximum altitude 23:39:29 13° 269° (W) 1,480 10.2 -17.3°
Drops below altitude 10° 23:41:20 10° 299° (WNW) 1,695 10.0 -17.6°
Sets 23:44:22 0° 327° (NNW) 2,595 10.6 -18.2°
